When you browse on this site, cookies collect data to enhance your experience and personalize the content and advertising you see.
Visit our Privacy Policy to learn more. By continuing to use the site, you agree to this use of cookies and data.
  • En España
  • Lista de países
  • Para 7 días
  • Temperatura del agua
  • El tiempo en el mapa
  • Informadores
  • user-avatar
    Iniciar sesión

    Tiempo cada hora Mutare

    Hoy, 14 Diciembre, Sábado

    Tiempo Temperatura Precipitaciones Viento Presión Humedad
    00:00 +19°C° 0 mm 1 mps 654 mmHg 92%
    01:00 +19°C° 0 mm 1 mps 654 mmHg 92%
    02:00 +19°C° 0 mm 1 mps 654 mmHg 94%
    03:00 +16°C° 0 mm 0 mps 654 mmHg 94%
    04:00 +16°C° 0 mm 0 mps 653 mmHg 95%
    05:00 +15°C° 0 mm 0 mps 653 mmHg 96%
    06:00 +17°C° 0 mm 0 mps 654 mmHg 89%
    07:00 +18°C° 0 mm 0 mps 655 mmHg 83%
    08:00 +21°C° 0 mm 0 mps 656 mmHg 73%
    09:00 +25°C° 0 mm 1 mps 656 mmHg 66%
    10:00 +26°C° 0 mm 1 mps 656 mmHg 58%
    11:00 +28°C° 0 mm 1 mps 656 mmHg 51%
    12:00 +28°C° 0 mm 1 mps 656 mmHg 49%
    13:00 +28°C° 0 mm 1 mps 655 mmHg 48%
    14:00 +29°C° 0 mm 2 mps 654 mmHg 46%
    15:00 +28°C° 0 mm 2 mps 654 mmHg 51%
    16:00 +27°C° 0 mm 2 mps 653 mmHg 55%
    17:00 +26°C° 0 mm 2 mps 653 mmHg 60%
    18:00 +24°C° 0 mm 2 mps 653 mmHg 67%
    19:00 +21°C° 0 mm 2 mps 653 mmHg 74%
    20:00 +20°C° 0 mm 1 mps 653 mmHg 82%
    21:00 +20°C° 0 mm 1 mps 653 mmHg 82%
    22:00 +19°C° 0 mm 1 mps 653 mmHg 82%
    23:00 +19°C° 0 mm 1 mps 653 mmHg 81%

    Mañana, 15 Diciembre, Domingo

    Tiempo Temperatura Precipitaciones Viento Presión Humedad
    00:00 +17°C° 0 mm 0 mps 653 mmHg 82%
    01:00 +16°C° 0 mm 0 mps 652 mmHg 82%
    02:00 +16°C° 0 mm 0 mps 652 mmHg 82%
    03:00 +16°C° 0 mm 0 mps 652 mmHg 82%
    04:00 +16°C° 0 mm 0 mps 652 mmHg 82%
    05:00 +15°C° 0 mm 0 mps 652 mmHg 83%
    06:00 +18°C° 0 mm 0 mps 653 mmHg 74%
    07:00 +21°C° 0 mm 0 mps 654 mmHg 65%
    08:00 +24°C° 0 mm 0 mps 655 mmHg 57%
    09:00 +28°C° 0 mm 1 mps 655 mmHg 50%
    10:00 +29°C° 0 mm 1 mps 655 mmHg 43%
    11:00 +31°C° 0 mm 1 mps 655 mmHg 35%
    12:00 +31°C° 0 mm 1 mps 654 mmHg 34%
    13:00 +31°C° 0 mm 2 mps 654 mmHg 33%
    14:00 +32°C° 0 mm 2 mps 653 mmHg 32%
    15:00 +30°C° 0 mm 2 mps 652 mmHg 36%
    16:00 +29°C° 0 mm 2 mps 652 mmHg 41%
    17:00 +28°C° 0 mm 2 mps 651 mmHg 45%
    18:00 +26°C° 0 mm 2 mps 651 mmHg 51%
    19:00 +24°C° 0 mm 1 mps 651 mmHg 57%
    20:00 +22°C° 0 mm 1 mps 651 mmHg 63%
    21:00 +22°C° 0 mm 1 mps 651 mmHg 65%
    22:00 +21°C° 0 mm 1 mps 651 mmHg 68%
    23:00 +21°C° 0 mm 1 mps 651 mmHg 70%

    Pasado mañana, 16 Diciembre, Lunes

    Tiempo Temperatura Precipitaciones Viento Presión Humedad
    00:00 +21°C° 0 mm 1 mps 651 mmHg 70%
    01:00 +20°C° 0 mm 1 mps 650 mmHg 71%
    02:00 +20°C° 0 mm 1 mps 650 mmHg 71%
    03:00 +20°C° 0 mm 1 mps 650 mmHg 71%
    04:00 +17°C° 0 mm 0 mps 651 mmHg 71%
    05:00 +17°C° 0 mm 0 mps 651 mmHg 71%
    06:00 +22°C° 0 mm 1 mps 652 mmHg 64%
    07:00 +24°C° 0 mm 1 mps 654 mmHg 58%
    08:00 +27°C° 0 mm 2 mps 655 mmHg 51%
    09:00 +27°C° 0.1 mm 2 mps 655 mmHg 52%
    10:00 +27°C° 0.1 mm 3 mps 655 mmHg 53%
    11:00 +28°C° 0.1 mm 4 mps 655 mmHg 54%
    12:00 +28°C° 0.2 mm 4 mps 654 mmHg 55%
    13:00 +27°C° 0.2 mm 4 mps 654 mmHg 57%
    14:00 +27°C° 0.2 mm 4 mps 654 mmHg 58%
    15:00 +26°C° 0.3 mm 4 mps 654 mmHg 63%
    16:00 +25°C° 0.3 mm 4 mps 653 mmHg 68%
    17:00 +23°C° 0.3 mm 4 mps 653 mmHg 72%
    18:00 +21°C° 0.1 mm 3 mps 653 mmHg 79%
    19:00 +20°C° 0.1 mm 2 mps 653 mmHg 86%
    20:00 +19°C° 0.1 mm 2 mps 653 mmHg 92%
    21:00 +18°C° 0.1 mm 2 mps 654 mmHg 94%
    22:00 +18°C° 0.1 mm 2 mps 654 mmHg 95%
    23:00 +19°C° 0.1 mm 1 mps 654 mmHg 96%

    17 Diciembre, Martes

    Tiempo Temperatura Precipitaciones Viento Presión Humedad
    00:00 +19°C° 0.1 mm 1 mps 654 mmHg 96%
    01:00 +19°C° 0.1 mm 1 mps 653 mmHg 96%
    02:00 +18°C° 0.1 mm 1 mps 653 mmHg 95%
    03:00 +18°C° 0.1 mm 1 mps 653 mmHg 95%
    04:00 +18°C° 0.1 mm 1 mps 653 mmHg 94%
    05:00 +18°C° 0.1 mm 1 mps 654 mmHg 94%
    06:00 +19°C° 0 mm 1 mps 654 mmHg 89%
    07:00 +19°C° 0 mm 1 mps 654 mmHg 84%
    08:00 +19°C° 0 mm 2 mps 655 mmHg 79%
    09:00 +21°C° 0 mm 2 mps 655 mmHg 72%
    10:00 +23°C° 0 mm 2 mps 655 mmHg 65%
    11:00 +25°C° 0 mm 2 mps 655 mmHg 57%
    12:00 +26°C° 0 mm 2 mps 655 mmHg 56%
    13:00 +26°C° 0 mm 2 mps 654 mmHg 54%
    14:00 +27°C° 0 mm 2 mps 654 mmHg 53%
    15:00 +26°C° 0 mm 2 mps 653 mmHg 56%
    16:00 +25°C° 0 mm 2 mps 653 mmHg 59%
    17:00 +25°C° 0 mm 2 mps 652 mmHg 63%
    18:00 +23°C° 0 mm 2 mps 652 mmHg 71%
    19:00 +20°C° 0 mm 2 mps 652 mmHg 79%
    20:00 +19°C° 0 mm 1 mps 652 mmHg 88%
    21:00 +18°C° 0 mm 1 mps 652 mmHg 89%
    22:00 +18°C° 0 mm 1 mps 652 mmHg 91%
    23:00 +16°C° 0 mm 1 mps 652 mmHg 93%

    18 Diciembre, Miércoles

    Tiempo Temperatura Precipitaciones Viento Presión Humedad
    00:00 +16°C° 0 mm 1 mps 652 mmHg 94%
    01:00 +16°C° 0 mm 1 mps 651 mmHg 95%
    02:00 +15°C° 0 mm 1 mps 651 mmHg 97%
    03:00 +15°C° 0 mm 1 mps 651 mmHg 96%
    04:00 +14°C° 0 mm 0 mps 651 mmHg 95%
    05:00 +14°C° 0 mm 0 mps 652 mmHg 95%
    06:00 +17°C° 0 mm 0 mps 652 mmHg 84%
    07:00 +20°C° 0 mm 0 mps 653 mmHg 73%
    08:00 +22°C° 0 mm 0 mps 654 mmHg 62%
    09:00 +26°C° 0 mm 1 mps 655 mmHg 53%
    10:00 +28°C° 0 mm 1 mps 655 mmHg 44%
    11:00 +30°C° 0 mm 1 mps 655 mmHg 35%
    12:00 +30°C° 0 mm 2 mps 654 mmHg 32%
    13:00 +30°C° 0 mm 2 mps 653 mmHg 30%
    14:00 +31°C° 0 mm 2 mps 653 mmHg 28%
    15:00 +30°C° 0 mm 2 mps 652 mmHg 32%
    16:00 +29°C° 0 mm 2 mps 652 mmHg 35%
    17:00 +28°C° 0 mm 2 mps 651 mmHg 39%
    18:00 +25°C° 0 mm 2 mps 651 mmHg 46%
    19:00 +23°C° 0 mm 1 mps 650 mmHg 53%
    20:00 +20°C° 0 mm 1 mps 650 mmHg 60%
    21:00 +20°C° 0 mm 1 mps 650 mmHg 63%
    22:00 +19°C° 0 mm 1 mps 651 mmHg 65%
    23:00 +19°C° 0 mm 1 mps 651 mmHg 68%

    19 Diciembre, Jueves

    Tiempo Temperatura Precipitaciones Viento Presión Humedad
    00:00 +18°C° 0 mm 1 mps 650 mmHg 70%
    01:00 +18°C° 0 mm 1 mps 650 mmHg 72%
    02:00 +16°C° 0 mm 1 mps 650 mmHg 75%
    03:00 +16°C° 0 mm 1 mps 650 mmHg 74%
    04:00 +16°C° 0 mm 1 mps 650 mmHg 74%
    05:00 +15°C° 0 mm 0 mps 651 mmHg 73%
    06:00 +18°C° 0 mm 0 mps 652 mmHg 64%
    07:00 +21°C° 0 mm 0 mps 653 mmHg 55%
    08:00 +24°C° 0 mm 0 mps 654 mmHg 46%
    09:00 +27°C° 0 mm 0 mps 654 mmHg 40%
    10:00 +29°C° 0 mm 0 mps 654 mmHg 33%
    11:00 +31°C° 0 mm 0 mps 654 mmHg 26%
    12:00 +33°C° 0 mm 1 mps 654 mmHg 26%
    13:00 +33°C° 0 mm 1 mps 653 mmHg 25%
    14:00 +34°C° 0 mm 2 mps 652 mmHg 24%
    15:00 +32°C° 0 mm 2 mps 651 mmHg 28%
    16:00 +31°C° 0 mm 2 mps 651 mmHg 33%
    17:00 +29°C° 0 mm 2 mps 650 mmHg 37%
    18:00 +27°C° 0 mm 2 mps 650 mmHg 44%
    19:00 +24°C° 0 mm 2 mps 650 mmHg 50%
    20:00 +22°C° 0 mm 1 mps 650 mmHg 57%
    21:00 +21°C° 0 mm 1 mps 650 mmHg 60%
    22:00 +20°C° 0 mm 1 mps 650 mmHg 63%
    23:00 +20°C° 0 mm 1 mps 651 mmHg 66%
    Mostrar más